Zurück zum Katalog

SL-16 DEB

LostLEO
NORAD 39716·DEBRIS·🇷🇺 Russia

Gestartet Dec 25, 1992 von Baikonur Cosmodrome

Loading…

Nächste Überflüge (nächste 24 Stunden)

TLE

VeraltetSource: Space-Track

Epoche: Feb 17, 2017, 06:55 UTC

1 39716U 92093KG  17048.28844711  .00000391  00000-0  26303-3 0  9994
2 39716  71.1354  19.7223 0102496 224.4094 134.8799 14.04114982646179

Verfolge SL-16 DEB in Echtzeit mit AllMySat

Download on the App Store